TimeEDT,TemperatureF,Dew PointF,Humidity,Sea Level PressureIn,VisibilityMPH,Wind Direction,Wind SpeedMPH,Gust SpeedMPH,PrecipitationIn,Events,Conditions,WindDirDegrees,DateUTC
12:54 AM,46.9,33.1,59,30.19,10.0,NW,9.2,-,N/A,,Partly Cloudy,320,2013-05-26 04:54:00
1:54 AM,46.0,34.0,63,30.19,10.0,NW,8.1,-,N/A,,Partly Cloudy,320,2013-05-26 05:54:00
2:54 AM,45.0,35.1,68,30.18,10.0,NW,8.1,-,N/A,,Partly Cloudy,310,2013-05-26 06:54:00
3:54 AM,45.0,35.1,68,30.18,10.0,NW,8.1,-,N/A,,Clear,320,2013-05-26 07:54:00
4:54 AM,45.0,36.0,71,30.19,10.0,NW,9.2,-,N/A,,Partly Cloudy,310,2013-05-26 08:54:00
5:54 AM,43.0,36.0,76,30.20,10.0,WNW,6.9,-,N/A,,Partly Cloudy,300,2013-05-26 09:54:00
6:54 AM,46.0,37.0,71,30.22,10.0,WNW,8.1,-,N/A,,Partly Cloudy,300,2013-05-26 10:54:00
7:54 AM,48.9,37.0,64,30.22,10.0,NW,10.4,-,N/A,,Partly Cloudy,320,2013-05-26 11:54:00
8:54 AM,52.0,37.0,57,30.24,10.0,West,9.2,-,N/A,,Scattered Clouds,280,2013-05-26 12:54:00
9:54 AM,55.0,34.0,45,30.24,10.0,WNW,11.5,-,N/A,,Partly Cloudy,290,2013-05-26 13:54:00
10:54 AM,55.9,32.0,40,30.24,10.0,NW,17.3,23.0,N/A,,Scattered Clouds,310,2013-05-26 14:54:00
11:54 AM,57.9,32.0,37,30.25,10.0,NW,11.5,20.7,N/A,,Scattered Clouds,320,2013-05-26 15:54:00
12:54 PM,57.9,32.0,37,30.25,10.0,WNW,9.2,20.7,N/A,,Partly Cloudy,300,2013-05-26 16:54:00
1:54 PM,60.1,30.0,32,30.25,10.0,WNW,12.7,21.9,N/A,,Partly Cloudy,300,2013-05-26 17:54:00
2:54 PM,61.0,28.9,30,30.23,10.0,NW,12.7,21.9,N/A,,Partly Cloudy,310,2013-05-26 18:54:00
3:54 PM,60.1,35.1,39,30.23,10.0,West,15.0,19.6,N/A,,Partly Cloudy,260,2013-05-26 19:54:00
4:02 PM,59.0,35.6,42,30.22,10.0,WSW,13.8,-,N/A,,Partly Cloudy,250,2013-05-26 20:02:00
4:54 PM,59.0,34.0,39,30.22,10.0,WSW,19.6,-,N/A,,Partly Cloudy,250,2013-05-26 20:54:00
5:54 PM,57.9,35.1,42,30.22,10.0,WSW,13.8,-,N/A,,Partly Cloudy,240,2013-05-26 21:54:00
6:54 PM,57.0,39.0,51,30.22,10.0,SW,10.4,-,N/A,,Partly Cloudy,230,2013-05-26 22:54:00
7:54 PM,55.0,43.0,64,30.22,10.0,SW,8.1,-,N/A,,Partly Cloudy,220,2013-05-26 23:54:00
8:54 PM,50.0,44.1,80,30.22,10.0,SW,6.9,-,N/A,,Partly Cloudy,220,2013-05-27 00:54:00
9:54 PM,50.0,45.0,83,30.22,10.0,SW,9.2,-,N/A,,Partly Cloudy,230,2013-05-27 01:54:00
10:54 PM,48.9,45.0,86,30.23,10.0,SW,5.8,-,N/A,,Partly Cloudy,220,2013-05-27 02:54:00
11:54 PM,48.9,45.0,86,30.24,10.0,SW,5.8,-,N/A,,Partly Cloudy,230,2013-05-27 03:54:00